Home > Time Zones > World Clock > Weather > Egypt > Cairo > Past weeks

Flag for Egypt Weather past 2 weeks in Cairo, Egypt

Now
95 °F

Sunny.


Feels Like: 97 °F
Forecast: 76 / 103 °F
Wind: 9 mph from North

Location: Cairo Airport

Current Time: Aug 22, 2014 at 6:58:03 PM

Latest Report: Aug 22, 2014 at 6:30 PM


Visibility: 10 mi

Pressure: 29.80 "Hg

Humidity: 36%

Dew point: 64 °F

Location of CairoLocation

Historic Weather in Cairo — Graph

°F

Cairo temperature yesterday

Maximum temperature yesterday: 93 °F (at 3:00 PM)
Minimum temperature yesterday: 77 °F (at 4:00 AM)
Average temperature yesterday: 83 °F

Past Weeks' High & Low Weather Summary

 TemperatureHumidityPressure
High97 °F (Aug 13, 4:30 PM)94% (Aug 16, 7:30 AM)29.98 "Hg (Aug 16, 7:30 AM)
Low75 °F (Aug 8, 6:30 AM)15% (Aug 12, 4:00 PM)29.65 "Hg (Aug 17, 3:00 PM)
Average84 °F57%29.82 "Hg
* Reported Aug 7 6:00 PM — Aug 22 6:00 PM, Cairo, Weather by CustomWeather, © 2014

Note: Actual official high and low records may vary slightly from our data, if they occured in-between our weather recording intervals... More about our weather records

Advertising

Cairo weather history for previous 24 hours

 ConditionsComfort  
Time TempWeatherWind HumidityBarometerVisibility
6:00 PM
Aug 22
97 °FSunny.12 mph37%29.77 "Hg10 mi
5:30 PM97 °FSunny.9 mph34%29.77 "Hg10 mi
5:00 PM97 °FSunny.9 mph34%29.80 "Hg10 mi
4:30 PM95 °FSunny.9 mph34%29.80 "Hg10 mi
4:00 PM95 °FSunny.10 mph34%29.80 "Hg10 mi
3:30 PM95 °FSunny.8 mph36%29.80 "Hg10 mi
3:00 PM95 °FSunny.12 mph39%29.83 "Hg10 mi
2:30 PM93 °FSunny.7 mph44%29.83 "Hg10 mi
2:00 PM93 °FSunny.7 mph44%29.83 "Hg10 mi
1:30 PM91 °FSunny.7 mph46%29.83 "Hg10 mi
1:00 PM90 °FClear.2 mph52%29.86 "Hg4 mi
12:30 PM88 °FClear.3 mph55%29.86 "Hg4 mi
12:00 PM88 °FClear.No wind55%29.86 "Hg4 mi
11:30 AM86 °FClear.6 mph62%29.86 "Hg4 mi
11:00 AM84 °FClear.No wind66%29.86 "Hg4 mi
10:30 AM82 °FClear.6 mph66%29.86 "Hg4 mi
10:00 AM79 °FClear.7 mph74%29.89 "Hg4 mi
9:30 AM79 °FClear.7 mph74%29.89 "Hg4 mi
9:00 AM79 °FFog.3 mph79%29.86 "Hg2 mi
8:30 AM79 °FFog.3 mph79%29.86 "Hg2 mi
8:00 AM79 °FFog.No wind79%29.86 "Hg2 mi
7:30 AM77 °FFog.No wind83%29.86 "Hg1 mi
7:00 AM75 °FFog.No wind89%29.86 "Hg1 mi
6:30 AM77 °FFog.5 mph83%29.86 "Hg1 mi
6:00 AM77 °FFog.6 mph83%29.86 "Hg2 mi
5:30 AM77 °FClear.6 mph83%29.86 "Hg10 mi
5:00 AM77 °FClear.6 mph79%29.86 "Hg10 mi
4:30 AM77 °FClear.6 mph79%29.86 "Hg10 mi
4:00 AM77 °FClear.6 mph79%29.86 "Hg10 mi
3:30 AM77 °FClear.6 mph79%29.86 "Hg10 mi
3:00 AM79 °FClear.6 mph70%29.86 "Hg10 mi
2:30 AM77 °FClear.9 mph79%29.86 "Hg10 mi
2:00 AM77 °FClear.9 mph79%29.86 "Hg10 mi
1:30 AM79 °FClear.9 mph74%29.89 "Hg10 mi
1:00 AM79 °FClear.9 mph74%29.89 "Hg10 mi
12:30 AM79 °FClear.9 mph70%29.89 "Hg10 mi
12:00 AM81 °FClear.9 mph66%29.89 "Hg10 mi
11:30 PM
Aug 21
81 °FClear.10 mph66%29.89 "Hg10 mi
11:00 PM81 °FClear.12 mph66%29.89 "Hg10 mi
10:30 PM82 °FClear.12 mph62%29.89 "Hg10 mi
10:00 PM82 °FClear.12 mph55%29.89 "Hg10 mi
9:30 PM84 °FClear.13 mph55%29.89 "Hg10 mi
9:00 PM84 °FClear.10 mph48%29.89 "Hg10 mi
8:30 PM86 °FClear.12 mph43%29.89 "Hg10 mi
8:00 PM86 °FClear.12 mph43%29.86 "Hg10 mi
7:30 PM86 °FClear.12 mph43%29.86 "Hg10 mi
7:00 PM88 °FSunny.12 mph40%29.86 "Hg10 mi
6:30 PM88 °FSunny.13 mph46%29.86 "Hg10 mi
6:00 PM90 °FSunny.15 mph46%29.86 "Hg10 mi
Weather by CustomWeather, © 2014

See weather overviewHow to use our weather pages